Location: Cella
(44.7333°N, 10.5667°E)
Time: 08:12:39
(UTC+00:00)

Cosmos 1777 Rocket - Pass Details

Date: 19 June 2021
Orbit: 757 x 776 km, 74.0° (Epoch: 28 July)

Event Time Altitude Azimuth Distance (km) Brightness Sun altitude
Rises 22:09:46 0° 343° (NNW) 3,260 8.9 -20.0°
Reaches altitude 10° 22:12:16 10° 350° (N) 2,331 7.7 -20.1°
Maximum altitude 22:17:20 45° 63° (ENE) 1,059 4.8 -20.4°
Enters shadow 22:19:34 29° 116° (ESE) 1,404 5.0 -20.5°
